Notices

What's New in latest Release from April 7th, 2021:

- Updated Glossary, including Speed of Maximum Gust, and Total Hourly Precipitation

- Updated national and regional climate services offices contacts and prices information

- Addition of station inventory lists for 1981-2010, 1971-2000, and 1961-1990 Normals.

If you haven't already, please take our survey and provide feedback about our website: https://eccc.sondage-survey.ca/f/LanguageSelection.aspx?s=442ca660-fcf1-47c0-95a9-59707d6fd709

Hourly Data Report for July 16, 2020

TORONTO CITY
ONTARIO
Current Station Operator: ECCC - MSC

43°40'00.000" N
79°24'00.000" W
112.50 m
6158355
71508
XTO

Download Data

Hourly Data (July 2020)
Hourly Data Report for July 16, 2020
TIME
LST
Temp Definition
°C
Dew Point Definition
°C
Rel Hum Definition
%
Precip. Amount Definition
mm

Wind Dir Definition
10's deg

Wind Spd Definition
km/h
Visibility Definition
km
Stn Press Definition
kPa
Hmdx Definition


Wind Chill Definition


Weather Definition


00:00 23.5 18.6 74 0.0       100.44 30   LegendNANA
01:00 23.1 18.5 75 0.0       100.36 29   LegendNANA
02:00 22.8 18.6 77 0.0       100.31 29   LegendNANA
03:00 22.8 18.9 79 0.0       100.29 29   LegendNANA
04:00 23.0 18.8 77 0.0       100.28 30   LegendNANA
05:00 23.8 17.1 66 0.0       100.29 29   LegendNANA
06:00 23.7 17.4 68 0.0       100.30 29   LegendNANA
07:00 24.3 17.5 66 0.0       100.29 30   LegendNANA
08:00 25.0 17.0 61 0.0       100.33 30   LegendNANA
09:00 25.0 17.7 64 0.0       100.32 31   LegendNANA
10:00 25.1 18.0 65 0.0       100.31 31   LegendNANA
11:00 23.9 20.0 79 0.4       100.32 31   LegendNANA
12:00 24.0 19.5 76 0.0       100.33 31   LegendNANA
13:00 24.4 20.3 78 0.0       100.30 32   LegendNANA
14:00 23.8 20.1 80 0.0       100.28 31   LegendNANA
15:00 24.8 18.8 69 0.0       100.20 31   LegendNANA
16:00 24.7 20.2 76 0.0       100.14 32   LegendNANA
17:00 24.1 20.2 79 0.0       100.09 32   LegendNANA
18:00 24.0 20.5 81 0.0       100.05 32   LegendNANA
19:00 23.5 21.2 86 0.6       100.02 32   LegendNANA
20:00 23.4 21.3 88 3.7       100.01 32   LegendNANA
21:00 23.5 21.5 89 0.0       100.00 32   LegendNANA
22:00 23.5 21.6 89 0.0       100.00 32   LegendNANA
23:00 23.5 21.5 88 0.0       99.99 32   LegendNANA

Notes on Data Quality.

Legend

  • E = Estimated
  • M = Missing
  • NA = Not Available*
  • [empty] = Indicates an unobserved value
Date modified: